Weather History for Alexandria, MN

Change the Weather History Date:

Wednesday, March 19, 2014

  Actual Average Record
Temperature  
Mean Temperature 30 °F -  
Max Temperature 34 °F 38 °F 75 °F (2012)
Min Temperature 25 °F 22 °F -11 °F (1965)
Degree Days  
Heating Degree Days 36    
Moisture  
Dew Point 24 °F    
Average Humidity 77    
Maximum Humidity 96    
Minimum Humidity 61    
Precipitation  
Precipitation 0.00 in - - ()
Sea Level Pressure  
Sea Level Pressure 29.95 in    
Wind  
Wind Speed 10 mph (NW)    
Max Wind Speed 14 mph    
Max Gust Speed 22 mph    
Visibility 9 miles    
Events      
Averages and records for this station are not official NWS values.
T = Trace of Precipitation, MM = Missing Value Source: NWS Daily Summary

Daily Weather History Graph

Daily Weather History Graph

Search for Another Location

Airport:

Trip Planner

Search our weather history database for the weather conditions in past years. The results will help you decide how hot, cold, wet, or windy it might be!

Date:

Astronomy

Mar. 19, 2014 Rise Set
Actual Time 7:26 AM CDT 7:32 PM CDT
Civil Twilight 6:56 AM CDT 8:02 PM CDT
Nautical Twilight 6:21 AM CDT 8:37 PM CDT
Astronomical Twilight 5:46 AM CDT 9:13 PM CDT
Moon 11:03 PM CDT (3/19) 8:43 AM CDT (3/19)
Length of Visible Light 13h 05m
Length of Day
12h 06m
Waning Gibbous, 91% of the Moon is Illuminated
Mar 19
Waning Gibbous
Mar 23
Last Quarter
Mar 30
New
Apr 7
First Quarter
Apr 15
Full

Hourly Weather History & Observations

Time (CDT) Temp. Windchill Dew Point Humidity Pressure Visibility Wind Dir Wind Speed Gust Speed Precip Events Conditions
12:53 AM 30.9 °F 23.5 °F 21.9 °F 69% 29.93 in 10.0 mi North 8.1 mph - N/A   Overcast
1:53 AM 30.0 °F 21.7 °F 23.0 °F 75% 29.92 in 10.0 mi NNW 9.2 mph - N/A   Overcast
2:53 AM 30.0 °F 21.7 °F 21.9 °F 72% 29.92 in 10.0 mi NNW 9.2 mph - N/A   Overcast
3:53 AM 30.0 °F 21.7 °F 21.0 °F 69% 29.91 in 10.0 mi NNW 9.2 mph - N/A   Overcast
4:53 AM 28.9 °F 19.8 °F 23.0 °F 78% 29.92 in 10.0 mi NNW 10.4 mph - N/A   Overcast
5:53 AM 30.0 °F 19.5 °F 21.0 °F 69% 29.93 in 10.0 mi NNW 13.8 mph 18.4 mph N/A   Overcast
6:49 AM 28.4 °F 20.4 °F 21.2 °F 74% 29.88 in 10.0 mi NW 8.1 mph - N/A   Overcast
6:53 AM 28.9 °F 20.4 °F 21.9 °F 75% 29.94 in 10.0 mi WNW 9.2 mph - N/A   Overcast
7:31 AM 28.4 °F 18.0 °F 24.8 °F 86% 29.89 in 9.0 mi NW 12.7 mph - N/A   Overcast
7:40 AM 28.4 °F 19.7 °F 24.8 °F 86% 29.90 in 8.0 mi NW 9.2 mph - N/A   Overcast
7:53 AM 28.0 °F 20.0 °F 25.0 °F 88% 29.95 in 7.0 mi NW 8.1 mph - N/A   Overcast
8:08 AM 28.4 °F 20.4 °F 24.8 °F 86% 29.89 in 8.0 mi NW 8.1 mph - N/A   Overcast
8:27 AM 28.4 °F 20.4 °F 24.8 °F 86% 29.90 in 7.0 mi NW 8.1 mph - N/A   Overcast
8:36 AM 28.4 °F 19.7 °F 24.8 °F 86% 29.90 in 7.0 mi NW 9.2 mph - N/A   Overcast
8:53 AM 28.0 °F 20.0 °F 25.0 °F 88% 29.96 in 7.0 mi NW 8.1 mph - N/A   Overcast
9:53 AM 28.9 °F 19.2 °F 25.0 °F 85% 29.97 in 8.0 mi NW 11.5 mph - N/A   Overcast
10:53 AM 30.0 °F 20.0 °F 25.0 °F 82% 29.99 in 10.0 mi NW 12.7 mph - N/A   Overcast
11:06 AM 30.2 °F 20.8 °F 24.8 °F 80% 29.92 in 10.0 mi NW 11.5 mph - N/A   Mostly Cloudy
11:53 AM 30.0 °F 20.5 °F 24.1 °F 79% 29.99 in 10.0 mi West 11.5 mph - N/A   Partly Cloudy
12:37 PM 32.0 °F 22.5 °F 24.8 °F 75% 29.93 in 10.0 mi WNW 12.7 mph - N/A   Mostly Cloudy
12:53 PM 32.0 °F 22.1 °F 24.1 °F 73% 29.99 in 10.0 mi WNW 13.8 mph - N/A   Mostly Cloudy
1:53 PM 33.1 °F 24.4 °F 24.1 °F 70% 29.98 in 10.0 mi WNW 11.5 mph - N/A   Mostly Cloudy
2:53 PM 33.1 °F 23.9 °F 23.0 °F 66% 29.98 in 10.0 mi WNW 12.7 mph - N/A   Overcast
3:53 PM 33.1 °F 23.4 °F 24.1 °F 70% 29.98 in 10.0 mi WNW 13.8 mph 21.9 mph N/A   Overcast
4:26 PM 33.8 °F 24.8 °F 23.0 °F 65% 29.93 in 10.0 mi WNW 12.7 mph - N/A   Overcast
4:53 PM 34.0 °F 24.6 °F 21.9 °F 61% 29.98 in 10.0 mi WNW 13.8 mph - N/A   Overcast
5:53 PM 33.1 °F 23.9 °F 21.9 °F 64% 29.99 in 10.0 mi NW 12.7 mph - N/A   Mostly Cloudy
6:53 PM 33.1 °F 27.7 °F 23.0 °F 66% 29.99 in 10.0 mi NW 5.8 mph - N/A   Overcast
7:53 PM 30.9 °F 25.2 °F 23.0 °F 72% 30.00 in 10.0 mi West 5.8 mph - N/A   Clear
8:53 PM 27.0 °F 20.5 °F 21.9 °F 81% 30.01 in 10.0 mi WSW 5.8 mph - N/A   Clear
9:53 PM 25.0 °F 17.1 °F 21.9 °F 88% 30.01 in 10.0 mi SW 6.9 mph - N/A   Clear
10:53 PM 25.0 °F 16.3 °F 24.1 °F 96% 30.01 in 6.0 mi WSW 8.1 mph - N/A   Scattered Clouds
11:53 PM 28.9 °F 21.1 °F 27.0 °F 92% 30.01 in 10.0 mi SW 8.1 mph - N/A   Overcast